Showing default

KSM1-A, 46912

Orbit data source: Space-Track

KSM1-A, 46912 is a payload satellite owned by Kleos Space (LU) in LEO that was launched on Sat, 07 Nov 2020 UTC via a PSLV-DL launch vehicle from the Sirharikota (SRI). Payload-class satellites include a variety of spacecraft equipped with specific instruments for various scientific and technological missions. These include communications satellites like Starlink; space stations such as the ISS; scientific satellites like the Hubble; Earth observation satellites from companies like Planet Labs, Umbra, and HawkEye 360; GPS; miniature CubeSats for education and research; and military/defense satellites.

Loading next visibility...
Identifier
46912, 2020-081H
Orbit
LEO
Last TLE update
7 hours ago
Origin
Manufacturer
GOMSpace
Mission
Operational Commercial Sigint
Bus & Motor
CUBESAT 6U, Unknown motor
Mass
~10 kg wet, ~10 kg dry
Launch date (UTC)
2020-11-07 (5 years ago)
Launch vehicle
PSLV-DL
Launch site
Sirharikota (SRI)
Object type
Payload
Rocket body
Debris
Shape & HBR
Box, Unknown HBR
Radar Cross Section
0.080 m², Medium (>0.1 m² and < 1m²)

Expand to show TLE details & history

TLE from 7 hours ago
0 KSM1-A
1 46912U 20081H   25186.61904689  .00005924  00000-0  28229-3 0  9994
2 46912  36.8978  26.7678 0004530 298.8961  61.1331 15.18836095256336
Epoch: 2025-07-05T14:51Z
TLE epoch observation values (Epoch: 2025-07-05T14:51:25.651Z)
Latitude
-0.00001°
Longitude
-119.94359°
Altitude
506.962 km
Speed
7.614 km/s
True Right ascension
01h 47m 04s
True Declination
0° 00' 00"
Sunlit
Object was in daylight at epoch
Visualization orbit readout
Latitude
-30.14314°
Longitude
108.47209°
Altitude
515.442 km
Speed
7.608 km/s
Apparent Right ascension
19h 16m 43s
Apparent Declination
-41° 21' 48"
Sunlit
Object is in full shadow
Visualization observer readout
Local Sidereal Time
10:08:23
Azimuth
106.786° ESE
Elevation
-57.735°
Doppler factor
1
Orbital elements
Apogee altitude
515.421 km
Perigee altitude
509.178 km
Semi-major axis
6,890.436 km
Eccentricity
0.00045
Inclination
36.8978°
RAAN
26.7678°
Arg. of periapsis
298.8961°
True anomaly
Unknown
Mean anomaly
61.1331°
Eccentric anomaly
Unknown
Mean motion
3.79466 °/min
Orbital period
94.87 mins
BSTAR
0.00028229
Loading maneuver chart data...
Loading SW <> Apogee altitude chart data...
Loading historical data...
Loading historical data...
Loading historical data...
Loading historical data...
Loading historical data...
Loading historical data...
Loading historical data...

KSM1-A Visibility forecast

Observer location: undefined°, undefined°

Span
Click to sort rows by Start time (UTC) header in descending order
Start Az.
Max El. time (UTC)
Max El. Az.
Max El.
End time (UTC)
End Az.
5 mins2025-07-06 17:58:14.391Z227.001° WSW2025-07-06 18:00:14.391Z173.856° S33.601°2025-07-06 18:03:14.391Z101.389° ESE
5 mins2025-07-06 19:38:14.391Z249.169° W2025-07-06 19:40:14.391Z176.758° S38.739°2025-07-06 19:43:14.391Z109.12° ESE
5 mins2025-07-06 21:18:14.391Z239.32° WSW2025-07-06 21:20:14.391Z186.232° SSW25.946°2025-07-06 21:23:14.391Z137.576° SSE
|